This is the latest recevied weather packets stored in our database for station/object N0NAI-13. If no packets are shown the sender has not sent any weather packets the latest 10 day(s).
| Time | Temp. | Humidity | Pressure | Rain* | Wind** | Luminosity | Snow |
|---|---|---|---|---|---|---|---|
| 1778076926 | 6.67° C | 56% | 1018.6 hPa | 0 mm | - | - | - |
| 1778076329 | 5.56° C | 58% | 1018.5 hPa | 0 mm | - | - | - |
| 1778075732 | 5.56° C | 60% | 1018.4 hPa | 0 mm | - | - | - |
| 1778075117 | 5° C | 60% | 1018.3 hPa | 0 mm | - | - | - |
| 1778074519 | 4.44° C | 63% | 1018.3 hPa | 0 mm | - | - | - |
| 1778073922 | 3.89° C | 63% | 1018.3 hPa | 0 mm | - | - | - |
| 1778073319 | 3.33° C | 67% | 1018.4 hPa | 0 mm | - | - | - |
| 1778072716 | 2.78° C | 73% | 1018.4 hPa | 0 mm | - | - | - |
| 1778072131 | 1.67° C | 73% | 1017.9 hPa | 0 mm | - | - | - |
| 1778071515 | 1.67° C | 75% | 1017.8 hPa | 0 mm | - | - | - |
| 1778070918 | 0.56° C | 81% | 1017.8 hPa | 0 mm | - | - | - |
| 1778070320 | -0.56° C | 86% | 1017.9 hPa | 0 mm | - | - | - |
| 1778069723 | -1.67° C | 87% | 1017.7 hPa | 0 mm | - | - | - |
| 1778069127 | -2.22° C | 87% | 1017.4 hPa | 0 mm | - | - | - |
| 1778068529 | -1.67° C | 86% | 1017.4 hPa | 0 mm | - | - | - |
| 1778067932 | -2.22° C | 87% | 1017.3 hPa | 0 mm | - | - | - |
| 1778067317 | -2.22° C | 87% | 1017.2 hPa | 0 mm | - | - | - |
| 1778066720 | -2.22° C | 87% | 1017.2 hPa | 0 mm | - | - | - |
| 1778066123 | -2.22° C | 87% | 1017.2 hPa | 0 mm | - | - | - |
| 1778065526 | -2.22° C | 87% | 1017.1 hPa | 0 mm | - | - | - |
| 1778064929 | -2.22° C | 86% | 1017.1 hPa | 0 mm | - | - | - |
| 1778064332 | -2.22° C | 85% | 1016.9 hPa | 0 mm | - | - | - |
| 1778063717 | -1.67° C | 85% | 1016.7 hPa | 0 mm | - | - | - |
| 1778063120 | -1.67° C | 84% | 1016.6 hPa | 0 mm | - | - | - |
| 1778062523 | -1.67° C | 83% | 1016.5 hPa | 0 mm | - | - | - |
* Rain latest hour (hover to see other rain measurements)
** Current wind speed in m/s (hover to see current wind gust speed)